Reflectivity
-20 -20 -20 -10 -19 -20 1 -20 -20 -20 -20 -20 -20 -20 -20 -20 -20 -20 -20 -20 -20 -20 -20 -20 -20 -20 -8 -20 -1 -20 -20 -20 -20
-20 31 -20 -20 -20 0 -15 -20 -20 -20 -20 -20 -20 -20 -20 -20 -20 -20 -20 -20 -20 -20 -20 -20 -20 -20 -20 -20 -20 -20 -20 -20 -20
-20 1 12 -4 -20 -20 -20 27 5 -20 -20 -20 -20 -20 -20 -20 -20 -20 -20 -20 -20 -17 -20 -20 -9 -20 -20 -20 -17 -20 -20 -20 -20
-20 13 -20 -11 13 -9 -6 -11 -14 -19 -20 -20 -20 -20 -20 -20 -20 -20 -20 -20 -20 5 -20 -20 -20 -16 -20 -20 -20 -20 -20 -20 -20
-20 -20 -20 -18 -18 -20 25 21 22 27 -17 -20 -20 -20 -20 -20 -20 -20 -20 -20 -20 -20 -20 -20 -20 -8 -6 -20 -20 -20 -20 -20 -20
22 -20 -20 -20 19 19 14 21 22 20 22 -19 7 -20 -15 -20 -20 -20 -20 -20 -20 -20 12 -20 -20 -20 -20 -20 -20 -20 -20 -20 -20
-7 1 -20 -20 -20 -20 17 21 1 11 11 7 10 6 -20 -20 -20 -20 -20 -20 -20 -20 -20 14 -20 -20 -20 -20 -20 -20 -20 -20 -20
-20 2 6 -17 -20 -16 -4 10 15 17 18 20 -20 -20 -20 -20 -20 -20 -20 -20 -20 -20 -20 -20 15 -11 -20 -20 -20 -20 -20 -20 -20
-20 -20 1 -0 0 -0 19 19 15 20 15 15 15 -20 -20 -20 -20 -20 -20 -20 -20 -20 -20 -20 -20 16 16 -20 -20 -20 -20 -20 -20
-20 -20 -20 3 -14 6 15 19 10 7 14 6 22 0 -20 -20 -20 -20 -20 -20 -20 -20 -20 -20 -20 -20 1 -8 12 -2 0 -20 -20
-20 -20 -20 -20 13 6 21 7 19 20 19 5 -12 -1 -12 -20 -20 -20 -20 -20 -20 -20 -20 -20 -20 -20 -20 -8 -2 15 6 11 -20
-20 -20 -20 -20 -20 -0 23 22 -12 21 -17 22 20 22 18 7 -20 -20 -20 -20 -20 -20 -20 -20 -20 -20 -20 -20 17 -10 -17 9 -17
-20 -20 -20 -20 -20 -20 15 20 20 20 2 9 -14 2 22 4 1 -12 -7 -20 -14 -20 11 -20 -20 -20 -20 -20 -20 17 22 14 4
-20 -20 -20 -20 -20 -20 -13 6 18 37 16 20 -4 9 -18 20 22 -2 3 -1 -20 -20 16 13 -4 -11 -20 -20 -20 -20 -1 18 -10
-20 -20 -20 -20 -20 -20 -18 17 17 19 21 39 36 29 3 32 29 20 32 -20 -16 0 -20 -18 -20 -20 -20 -20 -20 -20 -20 -20 -20
-20 -20 -20 -20 -20 -20 -20 15 -13 20 -0 3 37 29 37 46 28 -12 -6 -20 1 31 16 -16 -20 -20 -20 -20 -20 -20 -20 -20 -20
-20 -20 -20 -20 -20 -20 -20 -7 18 18 25 14 32 43 37 43 30 3 -5 -20 -20 -19 -6 -8 -20 -20 -20 -20 -20 -20 -20 -20 -20
-20 -20 -9 -15 -3 -20 -20 10 17 19 0 16 10 31 18 38 20 37 24 -9 21 -13 -18 -20 -20 -20 -20 -20 -20 -20 -20 -20 -20
-20 -11 -20 -20 -20 -19 -2 3 3 20 -1 1 31 32 32 32 35 35 31 -20 -20 -20 -20 -17 -20 -12 -20 -20 -15 -20 -20 -20 -13
-12 24 18 27 -20 14 -17 -18 -10 -4 5 25 -1 -10 23 37 16 28 32 13 -7 -20 -19 23 18 -6 -20 -20 -13 -6 11 10 13
Wind_Speed
11 10 9 7 6 8 9 11 11 11 12 12 11 11 9 7 7 4 5 4 7 3 4 3 5 4 4 4 4 4 4 4 4
12 11 10 9 8 12 12 12 13 13 14 14 13 11 7 8 6 6 5 4 4 5 5 5 4 4 4 4 4 4 3 3 3
12 12 11 11 12 13 13 13 14 14 14 15 13 10 9 8 6 7 6 6 6 6 6 6 6 5 5 5 4 4 3 3 3
13 12 12 13 14 14 14 15 15 15 15 14 13 12 11 10 6 7 6 10 9 8 8 8 7 7 6 6 6 6 5 5 4
12 12 13 14 14 13 14 15 16 15 15 15 13 12 10 12 8 7 6 9 11 11 11 10 9 9 8 8 7 7 7 6 6
12 10 8 9 14 15 15 16 15 13 12 13 13 12 9 11 8 7 8 11 14 13 12 13 12 12 11 10 10 10 9 9 9
10 10 7 11 13 14 14 15 15 12 10 10 10 9 12 10 9 8 11 13 14 15 14 13 14 13 13 13 13 12 12 11 11
6 8 7 9 12 10 12 12 12 14 11 9 10 13 13 8 8 9 11 13 15 15 15 15 14 15 14 14 15 14 13 13 13
9 6 9 10 8 11 11 6 10 12 14 14 13 12 10 8 7 9 13 14 14 15 15 15 15 16 16 16 16 15 15 15 15
10 9 8 7 7 9 10 11 11 11 12 12 14 14 13 13 8 7 14 14 15 16 16 17 17 16 17 18 17 16 17 17 16
10 11 10 9 8 9 10 8 11 11 12 15 15 15 13 14 13 9 8 14 14 16 17 17 18 18 18 18 18 18 17 17 18
12 10 11 10 9 12 10 10 9 9 11 15 14 12 16 12 14 10 10 9 14 15 18 19 18 18 19 19 17 17 18 17 18
12 10 10 11 9 9 8 9 8 9 9 11 9 10 11 16 14 11 8 7 9 12 16 17 18 18 18 19 19 18 17 17 19
12 10 10 12 10 10 9 7 7 7 7 9 8 9 8 9 9 11 12 11 8 7 9 12 13 15 17 19 20 19 18 17 19
12 10 11 12 10 10 9 11 6 7 5 5 8 8 7 9 9 8 8 7 8 8 9 7 8 14 14 16 18 19 18 17 17
11 10 11 11 12 11 12 9 8 6 3 2 5 4 6 9 10 7 7 8 8 7 7 6 6 5 12 13 15 18 20 19 18
10 11 11 12 10 12 12 12 7 5 6 3 2 4 2 1 5 3 6 8 5 5 5 5 6 7 7 8 6 11 16 18 18
9 9 10 10 10 9 10 9 10 6 2 3 3 2 2 2 2 3 4 6 3 2 3 5 7 8 8 8 8 10 13 16 17
13 13 11 10 8 9 9 6 6 6 5 4 3 7 3 3 2 0 2 3 4 3 4 7 7 9 8 8 18 14 12 15 16
12 11 11 7 5 5 5 4 4 4 3 6 5 2 4 5 3 2 3 6 4 5 6 9 8 11 10 8 11 15 14 13 13
Wind_Direction
232 230 238 244 244 205 177 170 169 170 176 181 182 177 179 200 224 209 131 252 112 154 153 129 141 146 140 139 135 133 127 116 104
254 235 225 228 244 211 196 187 183 183 185 191 192 193 188 229 214 209 203 198 200 183 181 184 180 170 162 163 160 152 147 137 131
265 258 239 228 228 216 212 205 198 195 197 198 195 188 198 215 216 213 204 130 210 196 194 200 200 198 193 190 188 184 179 173 170
261 253 248 239 235 226 216 211 207 203 204 206 201 186 194 243 220 214 211 158 215 210 198 205 214 213 213 209 206 205 203 204 203
253 252 241 239 236 232 229 220 215 210 207 209 200 192 202 227 223 224 219 169 212 231 199 203 212 219 220 222 223 224 224 221 222
257 240 248 239 234 236 235 226 223 218 218 217 193 186 222 223 224 222 163 206 219 226 226 206 208 214 217 219 224 227 230 233 230
310 298 278 249 239 237 236 227 217 215 227 206 208 220 230 231 226 228 164 212 223 227 231 223 215 217 219 219 222 227 229 233 238
281 285 256 245 221 238 223 227 227 224 227 233 209 218 227 227 227 229 176 221 226 229 233 238 231 222 225 227 225 226 231 234 234
278 264 275 266 248 241 235 216 226 226 228 225 231 222 224 228 230 227 176 217 229 235 235 239 243 236 228 230 232 230 229 232 238
279 271 260 255 253 252 244 227 223 225 227 228 229 228 223 227 228 234 174 207 223 231 237 241 243 246 239 234 236 232 231 230 233
277 271 267 265 258 252 243 244 239 233 225 229 230 231 225 225 227 228 212 200 225 231 236 242 246 248 251 245 236 237 239 235 233
274 273 269 262 264 265 254 241 242 234 230 233 233 231 231 223 222 216 229 202 207 230 239 243 247 249 249 250 247 237 239 236 236
274 269 266 267 262 260 251 245 237 232 222 224 220 226 227 223 215 222 223 219 233 205 222 238 246 250 255 254 256 254 248 242 238
279 272 268 261 257 258 251 244 230 239 218 228 221 219 212 212 219 215 229 227 233 241 199 216 237 246 249 256 259 262 259 253 251
282 275 270 264 254 252 250 248 222 243 225 210 217 217 206 205 210 198 218 212 222 237 247 238 229 217 238 254 258 260 261 264 266
290 280 267 257 249 245 249 241 233 224 221 359 221 217 222 222 204 187 205 202 204 229 244 250 259 247 208 231 253 265 269 269 271
295 289 275 261 246 242 245 234 234 235 206 192 238 219 185 236 246 234 217 211 189 200 214 256 272 280 283 284 244 258 271 274 275
291 270 277 268 265 257 246 238 231 241 194 186 120 309 112 39 94 254 186 172 156 208 303 298 302 295 293 299 283 233 255 272 287
347 329 292 274 266 255 252 240 233 229 191 115 110 107 73 75 79 182 299 34 357 351 322 320 311 307 298 351 32 15 350 315 301
354 348 338 285 265 259 227 220 219 210 179 148 159 159 126 152 137 205 320 347 324 351 339 335 314 20 47 29 25 21 16 2 347